Location: East Hauppauge
(40.8348°N, 73.1507°W)
Time: 19:19:16
(UTC+00:00)

Daily predictions for brighter satellites

Satellite Brightness Start Highest point End
(mag) Time Altitude Azimuth Time Altitude Azimuth Time Altitude Azimuth
BREEZE-M DEB (TANK) 4.3 21:45:39 10° W 21:49:16 53° NNW 22:00:39 10° ENE
CZ-4C R/B 3.3 21:53:14 10° N 21:56:51 77° WNW 22:00:28 10° SSW
Cosmos 1814 Rocket 4.4 21:53:33 10° SSW 21:58:53 70° WNW 22:04:12 10° NNE
Cosmos 405 3.2 21:55:33 10° SSW 21:59:02 73° W 22:02:31 10° N
Nadezhda 1 Rocket 4.1 21:53:06 10° S 21:59:16 60° E 22:05:31 10° NNE
Cosmos 389 Rocket 4.0 21:56:56 10° SE 21:59:16 17° E 22:01:36 10° NE
SMAP 3.2 21:55:20 10° SSE 21:59:50 51° ENE 22:04:21 10° N
Cosmos 1606 3.9 21:59:38 10° SE 22:02:44 23° E 22:05:52 10° NE
Cosmos 2292 4.3 22:07:40 10° S 22:10:35 54° E 22:13:52 10° NNE
Cosmos 1943 Rocket 4.0 22:10:05 10° NNE 22:11:15 11° NE 22:12:24 10° NE
SL-16 R/B 3.5 22:07:26 10° SSE 22:11:30 21° E 22:15:37 10° NE
PAYLOAD B 4.5 22:06:45 10° SSE 22:12:21 80° WSW 22:17:57 10° NNW
Cosmos 2154 Rocket 4.0 22:07:35 10° N 22:13:56 68° E 22:20:14 10° SSE
H-2A R/B 2.4 22:13:59 10° N 22:18:07 67° WNW 22:22:18 10° SSW
Cosmos 1610 Rocket 4.5 22:12:23 10° N 22:18:45 74° E 22:24:59 10° SSE
Lacrosse 5 rocket 3.1 22:17:21 10° SSE 22:18:56 12° ESE 22:20:14 11° E
Cosmos 1862 3.2 22:15:16 10° N 22:19:19 82° E 22:23:19 10° S
Cosmos 2341 Rocket 4.4 22:15:40 10° N 22:21:34 41° ENE 22:27:28 10° SE
ATLAS 5 CENTAUR R/B 4.0 22:16:20 10° NW 22:21:55 41° WSW 22:28:15 10° S
CZ-2C R/B 4.2 22:19:13 10° ESE 22:22:47 19° ENE 22:26:14 10° NNE
Abrixas rocket 2.1 22:20:14 10° NW 22:22:55 44° NNE 22:24:47 17° E
Cosmos 1867 4.2 22:20:17 10° S 22:25:14 38° ESE 22:29:38 13° NE
CZ-4 R/B 3.0 22:25:58 15° ENE 22:25:58 15° ENE 22:27:45 10° NNE
Cosmos 2333 Rocket 3.8 22:20:39 10° WSW 22:25:40 32° WNW 22:30:43 10° N
USA 281 3.8 22:20:47 10° ESE 22:26:26 32° NE 22:32:07 10° N
NOSS 0 Rocket 4.1 22:22:11 10° SSW 22:28:25 77° WNW 22:34:41 10° NNE
Cosmos 1633 Rocket 4.1 22:25:21 10° NNE 22:28:52 23° ENE 22:32:21 10° SE
Cosmos 1689 Rocket 3.6 22:29:44 18° E 22:29:47 18° E 22:31:54 10° SE
CZ-2D R/B 4.3 22:27:43 10° ESE 22:30:45 23° ENE 22:33:49 10° NNE
COSMOS 2428 4.1 22:25:39 10° SW 22:30:55 37° WNW 22:36:13 10° N
Cosmos 2298 Rocket 4.2 22:28:24 10° NNW 22:33:44 81° WSW 22:39:01 10° SSE
Cosmos 1356 4.0 22:30:36 10° N 22:33:44 33° ENE 22:36:51 10° SE
Cosmos 1818 3.5 22:29:41 10° NNW 22:35:09 68° NE 22:40:34 10° SE
Cosmos 2150 Rocket 4.0 22:30:17 10° NNW 22:35:28 85° WSW 22:40:36 10° SSE
ISS -3.0 22:32:31 10° WSW 22:35:46 46° NNW 22:37:58 18° NE
Cosmos 1939 Rocket 3.1 22:35:39 10° SE 22:39:17 42° ENE 22:42:58 10° N
ERS-2 2.0 22:35:48 10° NNE 22:39:28 72° ESE 22:43:06 10° S
Cosmos 2278 Rocket 2.3 22:36:32 10° NNW 22:42:14 81° WSW 22:47:55 10° SSE
CZ-4B R/B 1.1 22:40:09 10° N 22:43:13 83° WNW 22:46:17 10° SSW
SAR-Lupe-1 4.4 22:41:34 16° NNE 22:44:06 42° E 22:47:32 10° S
SL-8 Rocket 4.1 22:42:41 10° N 22:48:45 51° ENE 22:54:48 10° SSE
BREEZE-M DEB (TANK) 4.0 22:46:15 10° S 22:48:59 16° SSE 22:49:51 15° SE
Cosmos 2181 Rocket 4.1 22:43:48 10° SSE 22:50:03 56° E 22:56:17 10° NNE
TELKOM 3 3.8 22:47:33 10° WSW 22:50:10 43° NNW 22:50:44 35° N
GENESIS II 4.2 22:46:52 10° NNW 22:50:45 56° NE 22:53:40 16° SE
Meteor 1-25 Rocket 4.5 22:45:48 10° N 22:51:08 43° ENE 22:56:29 10° SSE
Cosmos 1125 Rocket 3.5 22:47:21 10° NNW 22:52:34 86° WSW 22:57:47 10° SSE
IRS-1C Rocket 4.1 22:47:52 10° SSE 22:53:01 57° ENE 22:58:11 10° N
YAOGAN 1 3.5 22:55:22 27° NE 22:55:22 27° NE 22:58:32 10° N
YAOGAN 3 4.4 22:55:20 10° SSE 22:59:41 80° ENE 23:04:03 10° N
USA 215 3.6 22:54:19 15° NE 22:59:47 62° NW 23:06:13 10° WSW
Cosmos 2219 Rocket 4.5 22:56:07 10° W 23:00:10 20° NW 23:04:13 10° N
Okean-O 3.0 22:57:32 10° SE 23:01:40 41° ENE 23:05:50 10° N
SL-24 R/B - RUBIN 2 4.4 23:01:20 10° NW 23:07:32 75° WSW 23:12:58 10° SSE
COSMO-SKYMED 1 2.5 23:03:18 10° NNE 23:07:41 86° W 23:12:01 10° SSW
Cosmos 2237 Rocket 3.1 23:02:32 10° SW 23:07:56 47° WNW 23:13:22 10° NNE
EO 1 Delta rocket 4.3 23:06:06 10° NNE 23:11:26 70° E 23:18:09 10° S
CZ-4 R/B 4.3 23:09:10 10° SSE 23:13:18 78° ENE 23:17:27 10° N
Okean O Rocket 3.8 23:10:48 10° SSW 23:14:29 27° W 23:18:13 10° NW
Cosmos 1933 3.4 23:11:59 10° S 23:15:59 79° W 23:19:06 17° N
SL-24 R/B 3.8 23:13:00 16° N 23:16:17 84° WNW 23:20:02 10° SSW
USA 81 3.9 23:14:47 10° N 23:20:06 87° E 23:25:23 10° S
Sich 1 4.0 23:15:58 10° NNW 23:20:12 47° W 23:24:22 10° SSW
PSLV R/B 3.8 23:20:05 28° N 23:22:10 83° WNW 23:26:12 10° SSW
CSL-04 Rocket 4.3 23:23:40 34° NE 23:23:40 34° NE 23:27:22 10° N
Cosmos 2369 Rocket 3.8 23:19:50 10° N 23:22:06 19° NNE 23:22:06 19° NNE
H-2A R/B 2.2 23:25:29 48° ENE 23:25:32 48° ENE 23:30:34 10° N
Helios 1A Rocket 2.7 23:25:01 10° SSE 23:29:02 82° ENE 23:33:04 10° NNW
SL-23 DEB 4.2 23:26:30 10° SW 23:30:11 61° SE 23:30:30 59° ESE
USA 267 3.1 23:27:58 35° ESE 23:30:56 71° NE 23:37:26 10° NW
Cosmos 2218 Rocket 3.9 23:26:46 10° N 23:32:57 87° W 23:39:06 10° S
Cosmos 1151 Rocket 3.4 23:30:47 10° SSW 23:35:02 61° W 23:37:28 24° N
Cosmos 1666 Rocket 4.3 23:31:06 10° NNW 23:35:22 52° W 23:39:39 10° S
Cosmos 773 Rocket 3.8 23:30:43 10° SSW 23:35:56 81° ESE 23:37:15 52° NNE
Cosmos 1782 3.8 23:32:51 10° S 23:35:12 35° S 23:35:12 35° S
Cosmos 1328 Rocket 3.8 23:34:21 10° SSW 23:38:36 65° W 23:40:17 35° N
Meteor 1-14 Rocket 4.2 23:39:01 10° N 23:44:56 69° ENE 23:46:47 45° SE
Cosmos 2366 rocket 4.1 23:38:54 10° N 23:45:05 74° W 23:51:12 10° S
Cosmos 2297 3.6 23:42:49 10° NNW 23:48:33 87° WSW 23:50:36 42° SSE
BREEZE-M DEB (TANK) 3.4 23:39:31 10° SW 23:48:28 71° SSE 23:48:28 71° SSE
MOS 1 Rocket 3.8 23:51:26 26° N 23:54:33 71° WNW 23:59:57 10° SSW
